Regional Weather Roundup
Issued by NWS

Current Version | Previous Version | Text Only | Print | Product List | Glossary Off
Versions: 1 2 3 4 5 6 7 8 9 10 11 12 13 14 15 16 17 18 19 20 21 22 23 24 25 26 27 28 29 30 31 32 33 34 35 36 37 38 39 40 41 42 43 44 45 46 47 48 49 50

000
ASUS44 KMEG 300810
RWRTN
TENNESSEE HOURLY STATE WEATHER ROUNDUP
NATIONAL WEATHER SERVICE MEMPHIS TN
300 AM CDT TUE MAY 30 2017

TNZ002-004-019-021-049-052-054-088>092-300900-
WEST TENNESSEE

CITY           SKY/WX    TMP DP  RH WIND       PRES   REMARKS
MEMPHIS INTL   CLEAR     68  67  96 SW3       30.03F
NWS MEMPHIS      N/A     66 N/A N/A MISG        N/A
JACKSON        CLEAR     67  66  97 SW6       30.03F
DYERSBURG        N/A    N/A N/A N/A MISG        N/A
SOMERVILLE     CLEAR     68  66  94 S5        30.03S
COVINGTON      CLEAR     66  64  94 CALM      30.03S
UNION CITY     CLEAR     68  59  73 CALM      30.01S
BOLIVAR        PTCLDY    64  63  94 CALM      30.04S FOG
PARIS          CLEAR     66  61  82 CALM      30.02S
HUNTINGDON     MOCLDY    66  64  94 SW3       30.02S
LEXINGTON      FOG       64  64 100 CALM      30.04S VSB 1/2
SELMER         MOCLDY    66  66 100 VRB5      30.05S FOG
SAVANNAH       CLEAR     66  64  94 CALM      30.05R
$$

TNZ008-025-027-028-033-062-065-066-300900-
NORTH MIDDLE TENNESSEE

CITY           SKY/WX    TMP DP  RH WIND       PRES   REMARKS
NASHVILLE      MOCLDY    67  64  90 CALM      30.05S
PORTLAND       CLOUDY    66  64  94 CALM      30.06S
CLARKSVILLE    LGT RAIN  67  61  81 E5        30.03F
SMYRNA         MOCLDY    64  64 100 SE5       30.06S
COOKEVILLE     CLOUDY    64  64 100 S6        30.06S FOG
GALLATIN       MOCLDY    66  66 100 VRB3      30.08R
CROSSVILLE     FOG       60  60 100 CALM      30.10R VSB 1/2
$$

TNZ061-075-076-078-094-096-097-300900-
SOUTH MIDDLE TENNESSEE

CITY           SKY/WX    TMP DP  RH WIND       PRES   REMARKS
FAYETTEVILLE   CLEAR     63  63 100 CALM      30.06F
TULLAHOMA        N/A     61  61 100 CALM      30.08S VSB 3/4
WINCHESTER     CLEAR     63  63 100 CALM        N/A
MCMINNVILLE    CLOUDY    63  63 100 CALM      30.07S VSB 0
COLUMBIA       FOG       64  64 100 SW3       30.04S VSB 1
SHELBYVILLE    PTCLDY    61  61 100 CALM      30.06S
$$

TNZ017-018-042-046-047-300900-
NORTHEAST TENNESSEE

CITY           SKY/WX    TMP DP  RH WIND       PRES   REMARKS
TRI CITIES     FOG       63  63 100 CALM      30.06F VSB 3/4
ELIZABETHTON   CLOUDY    64  63  94 CALM      30.07S
$$

TNZ012-013-036-069-073-074-300900-
CENTRAL EAST TENNESSEE

CITY           SKY/WX    TMP DP  RH WIND       PRES   REMARKS
KNOXVILLE      CLOUDY    66  63  90 SW7       30.06R
OAK RIDGE      CLOUDY    67  64  90 CALM      30.07S
DOWNTOWN KNOXV MOCLDY    66  66 100 W3        30.06S
GATLINBURG     CLOUDY    63  63 100 CALM      30.06R
MORRISTOWN     PTCLDY    66  66 100 W7        30.06R
JACKSBORO      FOG       63  63 100 CALM      30.09R VSB 0
$$

TNZ083-085-099-300900-
SOUTHEAST TENNESSEE

CITY           SKY/WX    TMP DP  RH WIND       PRES   REMARKS
CHATTANOOGA    CLOUDY    65  63  93 CALM      30.07S
$$

SKY/WX REPORTED AS FAIR MEANS FEW OR NO CLOUDS BELOW
12 THOUSAND FEET.





USA.gov is the U.S. government's official web portal to all federal, state and local government web resources and services.